Regional Weather Roundup
Issued by NWS

Home | Current Version | Previous Version | Graphics & Text | Print | Product List | Glossary On
Versions: 1 2 3 4 5 6 7 8 9 10 11 12 13 14 15 16 17 18 19 20 21 22 23 24 25 26 27 28 29 30 31 32 33 34 35 36 37 38 39 40 41 42 43 44 45 46 47 48 49 50
000
ASUS43 KLMK 191210
RWRKY
NATIONAL WEATHER SERVICE LOUISVILLE KY
700 AM EST SUN NOV 19 2017

NOTE "FAIR" INDICATES FEW OR NO CLOUDS BELOW 12,000 FEET
WITH NO SIGNIFICANT WEATHER AND/OR OBSTRUCTIONS TO VISIBILITY.

KYZ001>023-026-027-061>063-070>075-191300-
WESTERN AND SOUTH CENTRAL KENTUCKY

CITY           SKY/WX    TMP DP  RH WIND       PRES   REMARKS
PADUCAH        CLEAR     36  23  59 NW8       30.13R WCI  30
HENDERSON      CLOUDY    36  28  73 NW17G25   30.09R WCI  26
OWENSBORO      CLOUDY    37  30  75 NW13      30.07R WCI  29
HOPKINSVILLE   PTCLDY    37  29  73 NW8       30.08R WCI  30
BOWLING GREEN  MOCLDY    40  32  73 W12       30.06R WCI  33
GLASGOW        CLOUDY    40  34  80 W8        30.03R WCI  35
$$

KYZ024-025-028>034-038-045-046-053-191300-
NORTH CENTRAL KENTUCKY

CITY           SKY/WX    TMP DP  RH WIND       PRES   REMARKS
LOUISVILLE/SDF CLOUDY    41  32  70 W13       29.99R
LOUISVILLE/LOU CLOUDY    41  33  73 W9        29.99R
FORT KNOX      CLOUDY    39  31  73 W8        29.99R WCI  33
$$

KYZ035>037-039>044-047>052-055>060-089>105-191300-
NORTHEAST KENTUCKY

CITY           SKY/WX    TMP DP  RH WIND       PRES   REMARKS
LEXINGTON      CLOUDY    38  29  70 W13G20    29.97R WCI  30
COVINGTON      CLOUDY    38  31  76 W9        29.93R WCI  31
FRANKFORT      CLOUDY    39  28  64 W5        29.96R
$$

KYZ054-064>069-076>088-106>120-191300-
SOUTHEAST KENTUCKY

CITY           SKY/WX    TMP DP  RH WIND       PRES   REMARKS
JACKSON        CLOUDY    37  34  89 VRB5      29.93R WCI  33
LONDON         CLOUDY    38  29  70 NW5       29.97R WCI  34
SOMERSET       CLOUDY    37  32  81 N3        30.01R
MIDDLESBORO    CLOUDY    40  34  80 W6        29.97R
MONTICELLO     CLOUDY    38  32  79 W8        30.02R WCI  32
$$




USA.gov is the U.S. government's official web portal to all federal, state and local government web resources and services.